Regional Weather Roundup
Issued by NWS

Home | Current Version | Previous Version | Graphics & Text | Print | Product List | Glossary On
Versions: 1 2 3 4 5 6 7 8 9 10 11 12 13 14 15 16 17 18 19 20 21 22 23 24 25 26 27 28 29 30 31 32 33 34 35 36 37 38 39 40 41 42 43 44 45 46 47 48 49 50
000
ASUS43 KLMK 171510
RWRKY
KENTUCKY REGIONAL WEATHER ROUNDUP
NATIONAL WEATHER SERVICE LOUISVILLE KY
1100 AM EDT THU AUG 17 2017

NOTE "FAIR" INDICATES FEW OR NO CLOUDS BELOW 12,000 FEET
WITH NO SIGNIFICANT WEATHER AND/OR OBSTRUCTIONS TO VISIBILITY.

KYZ001>023-026-027-061>063-070>075-171600-
WESTERN AND SOUTH CENTRAL KENTUCKY

CITY           SKY/WX    TMP DP  RH WIND       PRES   REMARKS
PADUCAH        PTSUNNY   82  72  71 SW8       29.95R
HENDERSON      PTSUNNY   84  76  76 SW14G21   29.93R HX  93
OWENSBORO      MOSUNNY   84  76  76 SW15      29.93S HX  93
HOPKINSVILLE   PTSUNNY   80  74  82 SW14      30.00S
BOWLING GREEN  SUNNY     85  75  72 SW14      29.99S HX  93
GLASGOW        MOSUNNY   83  73  69 SW12      30.01S
$$

KYZ024-025-028>034-038-045-046-053-171600-
NORTH CENTRAL KENTUCKY

CITY           SKY/WX    TMP DP  RH WIND       PRES   REMARKS
LOUISVILLE/SDF MOSUNNY   88  74  63 SW14      29.93F HX  96
LOUISVILLE/LOU MOSUNNY   86  76  71 S12G17    29.94F HX  96
FORT KNOX      MOSUNNY   85  74  69 S13       29.95S HX  93
$$

KYZ035>037-039>044-047>052-055>060-089>105-171600-
NORTHEAST KENTUCKY

CITY           SKY/WX    TMP DP  RH WIND       PRES   REMARKS
LEXINGTON      PTSUNNY   83  74  74 SW10      30.00F
COVINGTON      PTSUNNY   82  77  84 S14G22    29.94F HX  90
FRANKFORT      CLOUDY    82  74  76 SW10      29.98S
$$

KYZ054-064>069-076>088-106>120-171600-
SOUTHEAST KENTUCKY

CITY           SKY/WX    TMP DP  RH WIND       PRES   REMARKS
JACKSON        CLOUDY    78  73  84 CALM      30.06S
LONDON         CLOUDY    81  73  76 W7        30.06S
SOMERSET       PTSUNNY   81  72  74 W12       30.05F
MIDDLESBORO    PTSUNNY   82  73  75 S7        30.08F
MONTICELLO     PTSUNNY   84  75  74 W15       30.06F HX  92
$$




USA.gov is the U.S. government's official web portal to all federal, state and local government web resources and services.